, AK

(GMT )
Denali Park

Weather History for PAIN - May, 2014

Change the Weather History Date:

Saturday, May 17, 2014

  Actual Average Record
Temperature  
Mean Temperature 50 °F -  
Max Temperature 62 °F 52 °F 66 °F (2015)
Min Temperature 37 °F 27 °F 14 °F (1967)
Degree Days  
Heating Degree Days 16    
Moisture  
Dew Point 38 °F    
Average Humidity 69    
Maximum Humidity 100    
Minimum Humidity 34    
Precipitation  
Precipitation 0.00 in - - ()
Sea Level Pressure  
Sea Level Pressure 30.01 in    
Wind  
Wind Speed 2 mph (WNW)    
Max Wind Speed 14 mph    
Max Gust Speed 22 mph    
Visibility 10 miles    
Events      
Averages and records for this station are not official NWS values.
T = Trace of Precipitation, MM = Missing Value Source: NWS Daily Summary

Daily Weather History Graph

Daily Weather History Graph

Search for Another Location

Airport or City:

Trip Planner

Search our weather history database for the weather conditions in past years. The results will help you decide how hot, cold, wet, or windy it might be!

Date:

Astronomy

May. 17, 2014 Rise Set
Actual Time 4:38 AM AKDT 11:07 PM AKDT
Civil Twilight 2:55 AM AKDT 12:56 AM AKDT
Nautical Twilight Sun does not rise Sun does not rise
Astronomical Twilight Sun does not rise Sun does not rise
Moon 1:14 AM AKDT (5/17) 7:40 AM AKDT (5/17)
Length of Visible Light 22h 01m
Length of Day
18h 29m
Waning Gibbous, 88% of the Moon is Illuminated
May 17
Waning Gibbous
May 21
Last Quarter
May 28
New
Jun 5
First Quarter
Jun 12
Full

Hourly Weather History & Observations

Time (AKDT) Temp. Windchill Dew Point Humidity Pressure Visibility Wind Dir Wind Speed Gust Speed Precip Events Conditions
12:16 AM 46.4 °F - 35.6 °F 66% 30.14 in 10.0 mi Calm Calm - N/A   Overcast
12:36 AM 46.4 °F - 35.6 °F 66% 30.14 in 10.0 mi Calm Calm - N/A   Mostly Cloudy
12:56 AM 44.6 °F 43.1 °F 35.6 °F 71% 30.14 in 10.0 mi West 3.5 mph - N/A   Partly Cloudy
1:16 AM 44.6 °F 43.1 °F 35.6 °F 71% 30.14 in 10.0 mi West 3.5 mph - N/A   Partly Cloudy
1:36 AM 42.8 °F - 35.6 °F 76% 30.15 in 10.0 mi Calm Calm - N/A   Partly Cloudy
1:56 AM 42.8 °F - 35.6 °F 76% 30.15 in 10.0 mi Calm Calm - N/A   Clear
2:16 AM 42.8 °F - 35.6 °F 76% 30.15 in 10.0 mi Calm Calm - N/A   Clear
2:36 AM 42.8 °F 41.1 °F 35.6 °F 76% 30.15 in 10.0 mi SW 3.5 mph - N/A   Clear
2:56 AM 41.0 °F - 35.6 °F 81% 30.14 in 10.0 mi Calm Calm - N/A   Clear
3:16 AM 39.2 °F - 33.8 °F 81% 30.14 in 10.0 mi Calm Calm - N/A   Clear
3:36 AM 39.2 °F 37.0 °F 33.8 °F 81% 30.14 in 10.0 mi SSW 3.5 mph - N/A   Clear
3:56 AM 37.4 °F - 33.8 °F 87% 30.14 in 10.0 mi Calm Calm - N/A   Partly Cloudy
4:16 AM 37.4 °F - 33.8 °F 87% 30.14 in 10.0 mi Calm Calm - N/A   Mostly Cloudy
4:36 AM 37.4 °F - 33.8 °F 87% 30.13 in 10.0 mi Calm Calm - N/A   Overcast
4:56 AM 37.4 °F - 33.8 °F 87% 30.13 in 10.0 mi Calm Calm - N/A   Overcast
5:16 AM 37.4 °F - 33.8 °F 87% 30.12 in 10.0 mi Calm Calm - N/A   Overcast
5:36 AM 37.4 °F - 33.8 °F 87% 30.12 in 10.0 mi Calm Calm - N/A   Overcast
5:56 AM 37.4 °F - 33.8 °F 87% 30.12 in 10.0 mi Calm Calm - N/A   Overcast
6:16 AM 37.4 °F - 33.8 °F 87% 30.11 in 10.0 mi Calm Calm - N/A   Overcast
6:36 AM 37.4 °F - 33.8 °F 87% 30.11 in 10.0 mi Calm Calm - N/A   Overcast
6:56 AM 39.2 °F - 35.6 °F 87% 30.10 in 10.0 mi Calm Calm - N/A   Overcast
7:16 AM 39.2 °F - 35.6 °F 87% 30.10 in 10.0 mi Calm Calm - N/A   Overcast
7:36 AM 39.2 °F - 35.6 °F 87% 30.10 in 10.0 mi Calm Calm - N/A   Overcast
7:56 AM 41.0 °F - 35.6 °F 81% 30.09 in 10.0 mi Calm Calm - N/A   Overcast
8:16 AM 42.8 °F - 35.6 °F 76% 30.09 in 10.0 mi Calm Calm - N/A   Overcast
8:36 AM 42.8 °F - 35.6 °F 76% 30.08 in 10.0 mi Calm Calm - N/A   Mostly Cloudy
8:56 AM 44.6 °F - 35.6 °F 71% 30.07 in 10.0 mi Calm Calm - N/A   Scattered Clouds
9:16 AM 48.2 °F - 37.4 °F 66% 30.06 in 10.0 mi Calm Calm - N/A   Mostly Cloudy
9:36 AM 48.2 °F - 37.4 °F 66% 30.05 in 10.0 mi Calm Calm - N/A   Mostly Cloudy
9:56 AM 51.8 °F - 37.4 °F 58% 30.04 in 10.0 mi Calm Calm - N/A   Scattered Clouds
10:16 AM 53.6 °F - 37.4 °F 54% 30.04 in 10.0 mi Calm Calm - N/A   Mostly Cloudy
10:36 AM 55.4 °F - 37.4 °F 51% 30.03 in 10.0 mi Calm Calm - N/A   Overcast
10:56 AM 57.2 °F - 37.4 °F 48% 30.02 in 10.0 mi Calm Calm - N/A   Overcast
11:16 AM 59.0 °F - 37.4 °F 45% 30.01 in 10.0 mi NNE 5.8 mph - N/A   Overcast
11:36 AM 60.8 °F - 35.6 °F 39% 30.00 in 10.0 mi North 6.9 mph - N/A   Overcast
11:56 AM 62.6 °F - 33.8 °F 34% 29.99 in 10.0 mi SW 8.1 mph - N/A   Overcast
12:16 PM 62.6 °F - 33.8 °F 34% 29.99 in 10.0 mi West 5.8 mph - N/A   Overcast
12:36 PM 60.8 °F - 33.8 °F 36% 29.98 in 10.0 mi WNW 8.1 mph - N/A   Overcast
12:56 PM 60.8 °F - 33.8 °F 36% 29.97 in 10.0 mi SW 6.9 mph - N/A   Overcast
1:16 PM 62.6 °F - 33.8 °F 34% 29.96 in 10.0 mi WNW 6.9 mph - N/A   Mostly Cloudy
1:36 PM 62.6 °F - 33.8 °F 34% 29.95 in 10.0 mi NNW 3.5 mph - N/A   Mostly Cloudy
1:56 PM 62.6 °F - 33.8 °F 34% 29.94 in 10.0 mi WNW 3.5 mph 17.3 mph N/A   Partly Cloudy
2:16 PM 62.6 °F - 33.8 °F 34% 29.94 in 10.0 mi WNW 5.8 mph - N/A   Scattered Clouds
2:36 PM 62.6 °F - 33.8 °F 34% 29.92 in 10.0 mi Calm Calm - N/A   Scattered Clouds
2:56 PM 62.6 °F - 33.8 °F 34% 29.91 in 10.0 mi WSW 5.8 mph - N/A   Scattered Clouds
3:16 PM 62.6 °F - 35.6 °F 37% 29.90 in 10.0 mi SSW 5.8 mph - N/A   Mostly Cloudy
3:36 PM 62.6 °F - 35.6 °F 37% 29.90 in 10.0 mi West 4.6 mph - N/A   Mostly Cloudy
3:56 PM 62.6 °F - 35.6 °F 37% 29.89 in 10.0 mi WNW 6.9 mph - N/A   Mostly Cloudy
4:16 PM 62.6 °F - 35.6 °F 37% 29.88 in 10.0 mi NW 3.5 mph - N/A   Scattered Clouds
4:36 PM 62.6 °F - 37.4 °F 39% 29.88 in 10.0 mi North 5.8 mph 17.3 mph N/A   Scattered Clouds
4:56 PM 60.8 °F - 37.4 °F 42% 29.89 in 10.0 mi West 8.1 mph - N/A   Mostly Cloudy
5:16 PM 57.2 °F - 42.8 °F 59% 29.90 in 10.0 mi West 6.9 mph 16.1 mph N/A   Scattered Clouds
5:36 PM 55.4 °F - 46.4 °F 72% 29.90 in 10.0 mi SSW 4.6 mph - N/A   Mostly Cloudy
5:56 PM 55.4 °F - 46.4 °F 72% 29.90 in 10.0 mi SSW 10.4 mph - N/A   Partly Cloudy
6:16 PM 53.6 °F - 46.4 °F 77% 29.90 in 9.0 mi North 8.1 mph - N/A   Mostly Cloudy
6:36 PM 51.8 °F - 46.4 °F 82% 29.91 in 10.0 mi NNE 10.4 mph - N/A   Mostly Cloudy
6:56 PM 51.8 °F - 44.6 °F 76% 29.91 in 8.0 mi East 3.5 mph - N/A   Overcast
7:16 PM 50.0 °F - 48.2 °F 94% 29.90 in 10.0 mi Calm Calm - N/A   Overcast
7:36 PM 51.8 °F - 44.6 °F 76% 29.91 in 10.0 mi NNW 4.6 mph - N/A   Overcast
7:56 PM 48.2 °F - 44.6 °F 87% 29.92 in 10.0 mi WSW 5.8 mph - N/A   Overcast
8:16 PM 48.2 °F - 44.6 °F 87% 29.92 in 7.0 mi West 3.5 mph - N/A   Overcast
8:36 PM 48.2 °F - 44.6 °F 87% 29.92 in 10.0 mi West 3.5 mph - N/A   Overcast
8:56 PM 46.4 °F - 46.4 °F 100% 29.92 in 10.0 mi Calm Calm - N/A   Mostly Cloudy
9:16 PM 46.4 °F 41.1 °F 44.6 °F 93% 29.92 in 9.0 mi North 11.5 mph 21.9 mph N/A   Mostly Cloudy
9:36 PM 44.6 °F 38.4 °F 42.8 °F 93% 29.92 in 7.0 mi North 12.7 mph 19.6 mph N/A   Overcast
9:56 PM 44.6 °F 38.1 °F 42.8 °F 93% 29.93 in 10.0 mi North 13.8 mph 20.7 mph N/A   Mostly Cloudy
10:16 PM 42.8 °F 37.0 °F 41.0 °F 93% 29.93 in 10.0 mi North 10.4 mph 21.9 mph N/A   Overcast
10:36 PM 42.8 °F 39.3 °F 41.0 °F 93% 29.94 in 10.0 mi North 5.8 mph 17.3 mph N/A   Overcast
10:56 PM 42.8 °F 41.1 °F 41.0 °F 93% 29.94 in 10.0 mi North 3.5 mph - N/A   Overcast
11:16 PM 42.8 °F 38.6 °F 39.2 °F 87% 29.95 in 10.0 mi North 6.9 mph - N/A   Mostly Cloudy
11:36 PM 39.2 °F 33.6 °F 39.2 °F 100% 29.96 in 10.0 mi North 8.1 mph 17.3 mph N/A   Overcast
11:56 PM 39.2 °F 32.5 °F 37.4 °F 93% 29.96 in 10.0 mi North 10.4 mph 18.4 mph N/A   Mostly Cloudy